Change the Weather History Date:

Saturday, January 12, 2013

  Actual Average (KOXV) Record (KOXV)
Temperature  
Mean Temperature 37 °F -  
Max Temperature 55 °F 28 °F 57 °F (1960)
Min Temperature 17 °F 11 °F -22 °F (1974)
Degree Days  
Heating Degree Days 28    
Moisture  
Dew Point 18 °F    
Average Humidity 67    
Maximum Humidity 83    
Minimum Humidity 57    
Precipitation  
Precipitation 0.00 in - - ()
Sea Level Pressure  
Sea Level Pressure 29.96 in    
Wind  
Wind Speed 16 mph (WNW)    
Max Wind Speed 29 mph    
Max Gust Speed 37 mph    
Visibility 10 miles    
Events      
Averages and records for this station are not official NWS values.
T = Trace of Precipitation, MM = Missing Value Source: NWS Daily Summary

Daily Weather History Graph

Daily Weather History Graph

Search for Another Location

Airport or City:

Trip Planner

Search our weather history database for the weather conditions in past years. The results will help you decide how hot, cold, wet, or windy it might be!

Date:

Astronomy

Jan. 12, 2013 Rise Set
Actual Time 7:36 AM CST 5:04 PM CST
Civil Twilight 7:05 AM CST 5:34 PM CST
Nautical Twilight 6:31 AM CST 6:09 PM CST
Astronomical Twilight 5:58 AM CST 6:42 PM CST
Moon 7:54 AM CST (1/12) 6:35 PM CST (1/12)
Length of Visible Light 10h 28m
Length of Day
9h 27m
New Moon, 1% of the Moon is Illuminated
Jan 12
New Moon
Jan 18
First Quarter
Jan 26
Full
Feb 3
Last Quarter
Feb 10
New

Hourly Weather History & Observations

Time (CST) Temp. Windchill Dew Point Humidity Pressure Visibility Wind Dir Wind Speed Gust Speed Precip Events Conditions
12:15 AM 55.2 °F - 42.4 °F 62% 29.58 in 10.0 mi SSW 13.8 mph 28.8 mph N/A   Clear
12:35 AM 54.9 °F - 42.3 °F 63% 29.60 in 10.0 mi SW 18.4 mph 26.5 mph N/A   Clear
12:55 AM 54.5 °F - 41.2 °F 61% 29.61 in 10.0 mi SW 17.3 mph 25.3 mph N/A   Clear
1:15 AM 53.4 °F - 39.2 °F 59% 29.63 in 10.0 mi WSW 16.1 mph 27.6 mph N/A   Scattered Clouds
1:35 AM 50.9 °F - 36.9 °F 59% 29.66 in 7.0 mi West 28.8 mph 36.8 mph N/A   Mostly Cloudy
1:55 AM 41.9 °F 33.4 °F 36.5 °F 81% 29.70 in 7.0 mi West 18.4 mph 34.5 mph N/A   Mostly Cloudy
2:15 AM 40.1 °F 31.6 °F 35.4 °F 83% 29.73 in 7.0 mi West 16.1 mph 24.2 mph N/A   Mostly Cloudy
2:35 AM 38.7 °F 29.1 °F 32.9 °F 80% 29.76 in 10.0 mi West 18.4 mph 33.4 mph N/A   Overcast
2:55 AM 36.9 °F 28.2 °F 31.8 °F 82% 29.79 in 10.0 mi West 13.8 mph 26.5 mph N/A   Overcast
3:35 AM 34.7 °F 24.0 °F 28.8 °F 79% 29.82 in 10.0 mi West 18.4 mph 29.9 mph N/A   Overcast
3:55 AM 34.0 °F 22.4 °F 28.4 °F 80% 29.83 in 10.0 mi West 20.7 mph 29.9 mph N/A   Overcast
4:15 AM 33.1 °F 21.9 °F 27.7 °F 81% 29.83 in 10.0 mi West 18.4 mph 28.8 mph N/A   Overcast
4:35 AM 32.9 °F 22.0 °F 26.8 °F 78% 29.85 in 10.0 mi West 17.3 mph 24.2 mph N/A   Overcast
4:55 AM 32.4 °F 20.9 °F 25.7 °F 76% 29.86 in 10.0 mi West 18.4 mph 26.5 mph N/A   Overcast
5:15 AM 32.0 °F 19.8 °F 24.3 °F 73% 29.87 in 10.0 mi West 20.7 mph 27.6 mph N/A   Overcast
5:35 AM 30.2 °F 17.4 °F 22.3 °F 72% 29.89 in 10.0 mi West 20.7 mph 26.5 mph N/A   Overcast
5:55 AM 29.1 °F 15.4 °F 20.3 °F 70% 29.91 in 10.0 mi West 23.0 mph 27.6 mph N/A   Mostly Cloudy
6:15 AM 27.5 °F 16.3 °F 19.2 °F 71% 29.93 in 10.0 mi West 13.8 mph 19.6 mph N/A   Scattered Clouds
6:35 AM 27.1 °F 14.9 °F 18.9 °F 71% 29.94 in 10.0 mi West 16.1 mph - N/A   Clear
6:55 AM 26.4 °F 13.6 °F 18.3 °F 71% 29.95 in 10.0 mi West 17.3 mph 21.9 mph N/A   Clear
7:15 AM 25.7 °F 12.7 °F 17.4 °F 71% 29.96 in 10.0 mi West 17.3 mph 25.3 mph N/A   Clear
7:35 AM 24.8 °F 12.4 °F 15.3 °F 67% 29.97 in 10.0 mi West 15.0 mph 23.0 mph N/A   Clear
7:55 AM 24.6 °F 12.7 °F 14.0 °F 64% 29.99 in 10.0 mi WNW 13.8 mph 19.6 mph N/A   Clear
8:15 AM 24.4 °F 12.4 °F 13.5 °F 63% 30.00 in 10.0 mi West 13.8 mph 25.3 mph N/A   Clear
8:35 AM 24.8 °F 11.9 °F 12.6 °F 60% 30.02 in 10.0 mi West 16.1 mph - N/A   Clear
8:55 AM 25.0 °F 11.7 °F 13.3 °F 61% 30.02 in 10.0 mi West 17.3 mph - N/A   Clear
9:15 AM 25.3 °F 14.7 °F 13.5 °F 61% 30.02 in 10.0 mi WNW 11.5 mph - N/A   Clear
9:35 AM 25.7 °F 13.1 °F 13.8 °F 61% 30.02 in 10.0 mi WNW 16.1 mph - N/A   Clear
9:55 AM 25.7 °F 13.1 °F 12.9 °F 58% 30.02 in 10.0 mi WNW 16.1 mph 23.0 mph N/A   Clear
10:15 AM 26.4 °F 16.6 °F 13.8 °F 59% 30.03 in 10.0 mi WNW 10.4 mph - N/A   Clear
10:35 AM 27.9 °F 18.4 °F 14.4 °F 57% 30.03 in 10.0 mi WNW 10.4 mph - N/A   Clear
10:55 AM 28.2 °F 15.9 °F 14.9 °F 57% 30.03 in 10.0 mi West 17.3 mph 20.7 mph N/A   Clear
11:15 AM 26.6 °F 16.8 °F 13.6 °F 58% 30.02 in 10.0 mi WNW 10.4 mph - N/A   Clear
11:35 AM 26.6 °F 16.2 °F 15.1 °F 62% 30.04 in 10.0 mi West 11.5 mph - N/A   Clear
11:55 AM 27.3 °F 18.4 °F 14.9 °F 60% 30.04 in 10.0 mi West 9.2 mph - N/A   Clear
12:15 PM 28.4 °F 19.1 °F 15.6 °F 59% 30.04 in 10.0 mi WNW 10.4 mph - N/A   Clear
12:55 PM 28.9 °F 18.2 °F 16.7 °F 60% 30.03 in 10.0 mi West 13.8 mph 17.3 mph N/A   Clear
1:15 PM 28.2 °F 19.5 °F 16.7 °F 62% 30.02 in 10.0 mi WNW 9.2 mph - N/A   Clear
1:35 PM 28.4 °F 19.7 °F 16.7 °F 62% 30.02 in 10.0 mi West 9.2 mph - N/A   Scattered Clouds
1:55 PM 28.2 °F 19.5 °F 16.3 °F 61% 30.03 in 10.0 mi West 9.2 mph - N/A   Scattered Clouds
2:15 PM 28.2 °F 17.2 °F 16.2 °F 61% 30.02 in 10.0 mi NW 13.8 mph - N/A   Scattered Clouds
2:35 PM 26.6 °F 16.8 °F 15.8 °F 64% 30.03 in 10.0 mi NW 10.4 mph - N/A   Scattered Clouds
2:55 PM 25.5 °F 14.3 °F 14.9 °F 64% 30.05 in 10.0 mi NW 12.7 mph - N/A   Clear
3:15 PM 25.3 °F 14.1 °F 14.7 °F 64% 30.05 in 10.0 mi NNW 12.7 mph - N/A   Clear
3:35 PM 24.8 °F 14.6 °F 14.0 °F 64% 30.06 in 10.0 mi NW 10.4 mph - N/A   Clear
3:55 PM 24.8 °F 14.0 °F 14.4 °F 65% 30.05 in 10.0 mi WNW 11.5 mph - N/A   Clear
4:15 PM 24.4 °F 13.0 °F 14.2 °F 65% 30.04 in 10.0 mi NW 12.7 mph - N/A   Clear
4:35 PM 23.9 °F 13.5 °F 13.8 °F 65% 30.03 in 10.0 mi NW 10.4 mph 17.3 mph N/A   Clear
4:55 PM 23.9 °F 11.7 °F 14.0 °F 66% 30.06 in 10.0 mi WNW 13.8 mph - N/A   Clear
5:15 PM 23.7 °F 12.1 °F 14.4 °F 67% 30.03 in 10.0 mi NW 12.7 mph 16.1 mph N/A   Clear
5:35 PM 23.5 °F 12.4 °F 14.5 °F 69% 30.05 in 10.0 mi NW 11.5 mph 17.3 mph N/A   Scattered Clouds
5:55 PM 23.0 °F 10.6 °F 13.1 °F 66% 30.06 in 10.0 mi WNW 13.8 mph 17.3 mph N/A   Clear
6:15 PM 23.0 °F 12.4 °F 13.1 °F 66% 30.08 in 10.0 mi WNW 10.4 mph - N/A   Clear
6:35 PM 23.0 °F 12.4 °F 13.6 °F 67% 30.09 in 10.0 mi NW 10.4 mph - N/A   Scattered Clouds
6:55 PM 22.8 °F 10.9 °F 13.3 °F 67% 30.09 in 10.0 mi WNW 12.7 mph 18.4 mph N/A   Scattered Clouds
7:15 PM 22.8 °F 11.5 °F 13.1 °F 66% 30.09 in 10.0 mi WNW 11.5 mph 19.6 mph N/A   Scattered Clouds
7:55 PM 22.6 °F 10.1 °F 12.7 °F 66% 30.06 in 10.0 mi NW 13.8 mph 20.7 mph N/A   Clear
8:15 PM 22.1 °F 8.5 °F 13.5 °F 69% 30.03 in 10.0 mi NW 16.1 mph 23.0 mph N/A   Clear
8:35 PM 21.9 °F 8.2 °F 12.6 °F 67% 30.04 in 10.0 mi NW 16.1 mph - N/A   Clear
8:55 PM 21.6 °F 7.8 °F 11.8 °F 66% 30.06 in 10.0 mi NW 16.1 mph 21.9 mph N/A   Clear
9:15 PM 21.2 °F 8.3 °F 11.7 °F 67% 30.05 in 10.0 mi NW 13.8 mph 19.6 mph N/A   Clear
9:35 PM 20.8 °F 6.8 °F 11.3 °F 67% 30.04 in 10.0 mi NW 16.1 mph - N/A   Clear
9:55 PM 20.7 °F 6.6 °F 11.1 °F 67% 30.05 in 10.0 mi NW 16.1 mph - N/A   Clear
10:15 PM 20.3 °F 6.1 °F 10.4 °F 66% 30.05 in 10.0 mi NW 16.1 mph - N/A   Scattered Clouds
10:35 PM 20.3 °F 7.2 °F 10.6 °F 66% 30.05 in 10.0 mi NW 13.8 mph - N/A   Scattered Clouds
10:55 PM 20.3 °F 6.1 °F 12.2 °F 71% 30.06 in 10.0 mi WNW 16.1 mph 20.7 mph N/A   Mostly Cloudy
11:15 PM 19.6 °F 5.7 °F 11.8 °F 72% 30.06 in 10.0 mi NW 15.0 mph 20.7 mph N/A   Mostly Cloudy
11:35 PM 19.0 °F 4.5 °F 10.6 °F 70% 30.05 in 10.0 mi NW 16.1 mph - N/A   Mostly Cloudy
11:55 PM 17.6 °F 3.7 °F 9.3 °F 70% 30.01 in 10.0 mi NNW 13.8 mph - N/A   Scattered Clouds